Погода в Хаддже

Йемен     15°41′48″N   43°35′50″E
темп.,
°C
ветер,
м/с
пор.,
м/с
влажн.,
%
обл.,
%
осадки,
мм/ч
давл.,
гПа
погр.,
м
11 апреля, вс
вс1100:00+26в11365 0.0 101012
03:00+25сз01411 0.0 100911
06:00+22зюз11535 0.0 101113
09:00+26зюз32464 0.0 1013600
12:00+29зюз44431 0.0 10131414
15:00+29зюз534543 0.0 10101706
18:00+27з32510 0.0 10111026
21:00+26ссв01550 0.0 1013353
12 апреля, пн
пн1200:00+25всв11570 0.0 101214
03:00+23юз11660 0.0 101132
06:00+21ююз11760 0.0 101351
09:00+24зюз22620 0.0 1015648
12:00+28зюз43460 0.0 10131373
15:00+31зюз43388 0.0 10102021
18:00+27з335720 0.0 10111059
21:00+26ююв01620 0.0 1012356
13 апреля, вт
вт1300:00+26св016290 0.0 101217
03:00+24юз117110 0.1 101135
06:00+22ююз11795 0.0 101342
09:00+26зюз21603 0.0 1014699
12:00+30зюз43445 0.0 10131497
15:00+31з534061 0.1 10102030
18:00+28зюз325635 0.1 10111039
21:00+26зюз11646 0.4 1012411
14 апреля, ср
ср1400:00+25юв01655 0.0 1012142
03:00+23юз117321 0.0 101172
06:00+21юз118599 0.0 1014111
09:00+25зюз226697 0.0 1015631
12:00+29зюз434945 0.0 10131417
15:00+31зюз534211 0.0 10091954
18:00+27з326344 0.0 1010959
21:00+25юз2170100 0.6 1012405
15 апреля, чт
чт1500:00+24зюз1174100 0.8 1012237
03:00+23зюз117635 0.8 1011139
06:00+23з11797 0.0 101339
09:00+26зюз21616 0.0 1014715
12:00+30зюз424719 0.0 10121604
15:00+30зюз544770 1.0 10101650
18:00+27з326465 0.1 1010951
21:00+25зюз217453 2.8 1012349